Regional Weather Roundup
Issued by NWS

Home | Current Version | Previous Version | Text Only | Print | Product List | Glossary Off
Versions: 1 2 3 4 5 6 7 8 9 10 11 12 13 14 15 16 17 18 19 20 21 22 23 24 25 26 27 28 29 30 31 32 33 34 35 36 37 38 39 40 41 42 43 44 45 46 47 48 49 50

000
ASUS43 KLMK 071210
RWRKY
KENTUCKY REGIONAL WEATHER ROUNDUP
NATIONAL WEATHER SERVICE LOUISVILLE KY
800 AM EDT TUE JUL 07 2015

NOTE "FAIR" INDICATES FEW OR NO CLOUDS BELOW 12,000 FEET
WITH NO SIGNIFICANT WEATHER AND/OR OBSTRUCTIONS TO VISIBILITY.

KYZ001>023-026-027-061>063-070>075-071300-
WESTERN AND SOUTH CENTRAL KENTUCKY

CITY           SKY/WX    TMP DP  RH WIND       PRES   REMARKS
PADUCAH        CLOUDY    75  72  90 S7        29.97S
HENDERSON      CLOUDY    72  70  94 SW13G18   29.96S
OWENSBORO      LGT RAIN  74  73  96 W10       30.00R FOG
HOPKINSVILLE   CLOUDY    73  71  92 S10       30.03R
BOWLING GREEN  PTSUNNY   76  71  85 S10       30.05R
GLASGOW        CLOUDY    74  72  91 S6        30.05S
$$

KYZ024-025-028>034-038-045-046-053-071300-
NORTH CENTRAL KENTUCKY

CITY           SKY/WX    TMP DP  RH WIND       PRES   REMARKS
LOUISVILLE/SDF CLOUDY    78  71  79 SW9       29.99S
LOUISVILLE/LOU CLOUDY    77  71  82 S7        30.00S
FORT KNOX      PTSUNNY   75  72  88 S12       30.00R
$$

KYZ035>037-039>044-047>052-055>060-089>105-071300-
NORTHEAST KENTUCKY

CITY           SKY/WX    TMP DP  RH WIND       PRES   REMARKS
LEXINGTON      MOSUNNY   74  70  87 S13       30.04S
COVINGTON      PTSUNNY   74  71  91 S9        30.00R
FRANKFORT      PTSUNNY   74  70  87 SW8       30.02S
$$

KYZ054-064>069-076>088-106>120-071300-
SOUTHEAST KENTUCKY

CITY           SKY/WX    TMP DP  RH WIND       PRES   REMARKS
JACKSON        MOSUNNY   71  67  87 VRB3      30.11S
LONDON         MOSUNNY   72  67  84 S5        30.12R
SOMERSET       MOSUNNY   70  70 100 S5        30.10S
MIDDLESBORO    CLOUDY    67  67  99 CALM      30.15R
MONTICELLO     MOSUNNY   76  74  93 S6        30.12R
$$



USA.gov is the U.S. government's official web portal to all federal, state and local government web resources and services.